Regional Weather Roundup
Issued by NWS

Home | Current Version | Previous Version | Graphics & Text | Print | Product List | Glossary On
Versions: 1 2 3 4 5 6 7 8 9 10 11 12 13 14 15 16 17 18 19 20 21 22 23 24 25 26 27 28 29 30 31 32 33 34 35 36 37 38 39 40 41 42 43 44 45 46 47 48 49 50
879
ASUS44 KMEG 171310
RWRTN
TENNESSEE HOURLY STATE WEATHER ROUNDUP
NATIONAL WEATHER SERVICE MEMPHIS TN
800 AM CDT TUE OCT 17 2017

TNZ002-004-019-021-049-052-054-088>092-171400-
WEST TENNESSEE

CITY           SKY/WX    TMP DP  RH WIND       PRES   REMARKS
MEMPHIS INTL   PTCLDY    49  42  77 CALM      30.35R
NWS MEMPHIS      N/A     43 N/A N/A MISG        N/A
JACKSON        SUNNY     44  42  93 CALM      30.37R
COVINGTON      CLEAR     41  41 100 CALM      30.36S
UNION CITY     CLEAR     39  39 100 CALM      30.36S
BOLIVAR        SUNNY     39  37  93 CALM      30.35R
PARIS          SUNNY     43  41  93 CALM      30.36R
HUNTINGDON     SUNNY     43  41  93 CALM      30.37R
LEXINGTON      SUNNY     41  41 100 CALM      30.35R
SELMER         SUNNY     45  43  93 NE5       30.33R
SAVANNAH       SUNNY     39  39 100 CALM      30.34R
$$

TNZ008-025-027-028-033-062-065-066-171400-
NORTH MIDDLE TENNESSEE

CITY           SKY/WX    TMP DP  RH WIND       PRES   REMARKS
NASHVILLE      SUNNY     44  42  93 CALM      30.37R
PORTLAND       SUNNY     41  41 100 CALM      30.37R FOG
CLARKSVILLE    SUNNY     42  40  92 CALM      30.37R
SMYRNA         SUNNY     43  41  93 CALM      30.38R
COOKEVILLE     SUNNY     43  41  93 CALM      30.35R
GALLATIN       SUNNY     43  41  93 CALM      30.39R
CROSSVILLE     SUNNY     43  39  86 E5        30.35R
$$

TNZ061-075-076-078-094-096-097-171400-
SOUTH MIDDLE TENNESSEE

CITY           SKY/WX    TMP DP  RH WIND       PRES   REMARKS
FAYETTEVILLE   SUNNY     46  45  93 NE5       30.33R
TULLAHOMA      SUNNY     45  39  81 CALM      30.35R
WINCHESTER     SUNNY     45  43  93 CALM        N/A
COLUMBIA       FOG       39  39 100 CALM      30.34R VSB 0
SHELBYVILLE    SUNNY     41  41 100 CALM      30.36R
$$

TNZ017-018-042-046-047-171400-
NORTHEAST TENNESSEE

CITY           SKY/WX    TMP DP  RH WIND       PRES   REMARKS
TRI CITIES     MOSUNNY   39  39 100 CALM      30.39R
ELIZABETHTON   SUNNY     43  39  87 CALM      30.39R
$$

TNZ012-013-036-069-073-074-171400-
CENTRAL EAST TENNESSEE

CITY           SKY/WX    TMP DP  RH WIND       PRES   REMARKS
KNOXVILLE      MOSUNNY   46  45  96 CALM      30.35R
OAK RIDGE      SUNNY     46  45  96 CALM      30.38R
DOWNTOWN KNOXV MOSUNNY   46  46 100 CALM      30.38R
GATLINBURG     SUNNY     41  39  93 CALM      30.37R
MORRISTOWN     SUNNY     46  41  81 E5        30.36R
JACKSBORO      FOG       39  39 100 CALM      30.41R VSB 0
$$

TNZ083-085-099-171400-
SOUTHEAST TENNESSEE

CITY           SKY/WX    TMP DP  RH WIND       PRES   REMARKS
CHATTANOOGA    SUNNY     48  44  86 CALM      30.36R
DAYTON         SUNNY     46  46 100 CALM      30.35R
$$

SKY/WX REPORTED AS FAIR MEANS FEW OR NO CLOUDS BELOW
12 THOUSAND FEET.





USA.gov is the U.S. government's official web portal to all federal, state and local government web resources and services.